Flag for Germany Weather past 2 weeks in Gladbeck, North Rhine-Westphalia, Germany

Now
53 °F

Overcast.


Feels Like: 51 °F
Forecast: 46 / 52 °F
Wind: 8 mph from Southwest

Location: Duesseldorf

Current Time: Mar 28, 2015 at 1:06:22 PM

Latest Report: Mar 28, 2015 at 12:00 PM


Visibility: 22 mi

Pressure: 30.04 "Hg

Humidity: 52%

Dew point: 36 °F

Location of GladbeckLocation

Historic Weather in Gladbeck — Graph

°F

Gladbeck temperature yesterday

Maximum temperature yesterday: 49 °F (at 2:00 PM)
Minimum temperature yesterday: 37 °F (at 11:00 PM)
Average temperature yesterday: 44 °F

Past Weeks' High & Low Weather Summary

 TemperatureHumidityPressure
High65 °F (Mar 17, 3:00 PM)99% (Mar 20, 1:00 AM)30.39 "Hg (Mar 20, 1:00 AM)
Low31 °F (Mar 20, 3:00 AM)35% (Mar 17, 5:00 PM)29.66 "Hg (Mar 25, 2:00 AM)
Average43 °F78%30.13 "Hg
* Reported Mar 13 12:00 Noon — Mar 28 12:00 Noon, Gladbeck, Weather by CustomWeather, © 2015

Note: Actual official high and low records may vary slightly from our data, if they occured in-between our weather recording intervals... More about our weather records

Advertising

Gladbeck weather history for previous 24 hours

 ConditionsComfort  
Time TempWeatherWind HumidityBarometerVisibility
12:00 PM
Sat, Mar 28
53 °FOvercast.8 mph52%30.04 "Hg22 mi
11:00 AM52 °FOvercast.8 mph56%30.07 "Hg22 mi
9:00 AM43 °FOvercast.6 mph75%30.14 "Hg22 mi
8:00 AM40 °FPartly sunny.6 mph82%30.15 "Hg22 mi
7:00 AM37 °FPassing clouds.5 mph87%30.17 "Hg22 mi
6:00 AM33 °FPassing clouds.2 mph96%30.19 "Hg16 mi
5:00 AM32 °FPassing clouds.2 mph96%30.19 "Hg16 mi
3:00 AM35 °FPassing clouds.1 mph90%30.22 "Hg16 mi
2:00 AM38 °FOvercast.2 mph85%30.23 "Hg16 mi
1:00 AM39 °FOvercast.2 mph84%30.23 "Hg16 mi
12:00 AM38 °FOvercast.2 mph86%30.23 "Hg16 mi
11:00 PM
Fri, Mar 27
37 °FPassing clouds.2 mph89%30.23 "Hg19 mi
9:00 PM43 °FPassing clouds.2 mph72%30.22 "Hg19 mi
8:00 PM46 °FPassing clouds.3 mph67%30.19 "Hg19 mi
7:00 PM47 °FPassing clouds.5 mph63%30.17 "Hg19 mi
6:00 PM47 °FOvercast.6 mph61%30.15 "Hg19 mi
5:00 PM48 °FOvercast.7 mph59%30.13 "Hg19 mi
3:00 PM49 °FOvercast.8 mph57%30.09 "Hg19 mi
2:00 PM49 °FPartly sunny.8 mph55%30.06 "Hg19 mi
1:00 PM48 °FOvercast.9 mph59%30.06 "Hg19 mi
Weather by CustomWeather, © 2015

See weather overviewHow to use our weather pages